Other Surface Observations
Issued by NWS

Home | Current Version | Previous Version | Text Only | Print | Product List | Glossary On
Versions: 1 2 3 4 5 6 7 8 9 10 11 12 13 14 15 16 17 18 19 20 21 22 23 24 25 26 27 28 29 30 31 32 33 34 35 36 37 38 39 40 41 42 43 44 45 46 47 48 49 50
000
SXUS52 KTAE 282118
OSOTAE
OSOTAE
North Florida/South Alabama/Southwest Georgia Weather Roundup
National Weather Service Tallahassee Florida
400 PM EST SAT FEB 28 2015

Note: "fair" indicates few or no clouds below 12,000 feet with no
significant weather and/or obstructions to visibility.

!FLZ017-115-028-034-025-282200
...North Florida...

CITY           SKY/WX    TMP DP  RH WIND       PRES   REMARKS
TALLAHASSEE    CLOUDY    52  47  83 NE12G20   30.40R
APALACHICOLA   CLOUDY    60  50  69 NE17      30.34R
PERRY          CLOUDY    51  49  94 NE12      30.39S
CROSS CITY       N/A     58  54  86 NE12      30.36R
JACKSONVILLE   CLOUDY    51  51 100 N17       30.41R FOG
$$

!FLZ112-006-005-002-011-282200
...Florida Panhandle...

CITY           SKY/WX    TMP DP  RH WIND       PRES   REMARKS
MARIANNA       CLOUDY    49  49 100 NE14      30.41S WCI  44
BONIFAY        CLOUDY    51  46  83 NE8G18    30.41S
PANAMA CITY NW CLOUDY    53  47  79 NE13G23   30.37S
TYNDALL AFB    CLOUDY    55  50  83 NE9G16    30.36R
TYND DRONE APT CLOUDY    55  51  86 NE13G21   30.35R
DE FUNIAK SPR  CLOUDY    54  47  78 E14G21    30.38S
EGLIN AFB      CLOUDY    58  48  69 E12       30.35S
DESTIN         CLOUDY    56  48  74 E9        30.36S
HURLBURT       CLOUDY    58  45  61 NE13      30.34R
CRESTVIEW      CLOUDY    59  48  67 E8        30.38S
PENSACOLA      CLOUDY    60  47  61 E7        30.34S
$$

!ALZ063-066-282200
...South Alabama...

CITY           SKY/WX    TMP DP  RH WIND       PRES   REMARKS
DOTHAN         CLOUDY    51  45  79 E12       30.45R
OZARK CAIRNS   DRIZZLE   52  46  82 E13       30.40R
FT RUCKER HELI CLOUDY    56  46  69 E8        30.40S
RUCKER HELI 3  PTSUNNY   56  47  72 E9        30.40S
RUCKER HELI 2  CLOUDY    54  45  71 E13       30.41R
FLORALA APT    CLOUDY    56  47  71 E13G22    30.40R
ANDALUSIA      CLOUDY    62  45  53 SE9       30.38S
TROY           CLOUDY    60  43  53 E10       30.40S
EUFALA         CLOUDY    55  44  66 E9        30.43R
MOBILE         MOSUNNY   65  48  54 E16       30.32F
$$

!GAZ120>161-282200
...Southwest and South Central Georgia...

CITY           SKY/WX    TMP DP  RH WIND       PRES   REMARKS
THOMASVILLE    LGT RAIN  46  46 100 NE15      30.45R WCI  40
BAINBRIDGE     LGT RAIN  52  50  93 E13       30.44R
MOODY AFB      LGT RAIN  45  43  93 NE8       30.44R FOG     WCI  40
VALDOSTA       LGT RAIN  47  45  93 NE8       30.44R FOG     WCI  43
MOULTRIE       CLOUDY    45  45 100 NE9G17    30.45S WCI  40
BLAKELY        CLOUDY    52  46  82 E7        30.44R
ALBANY         CLOUDY    46  45  93 NE10      30.48R FOG     WCI  41
TIFTON         RAIN      43  43  99 NE10      30.46S WCI  37
FITZGERALD     CLOUDY    45  42  91 E9G17     30.50S WCI  40
CORDELE        DRIZZLE   47  41  80 E9G16     30.49S WCI  43
AMERICUS       CLOUDY    48  37  66 E10       30.48S WCI  44
HOMERVILLE     DRIZZLE   46  46 100 NE9       30.46S WCI  42
$$

!GMZ750-755-770-775-282200
...Coastal and Buoy Obs...

STATION/POSITION TIME  TEMP    WIND        PRES    VSBY  WAVE
                       AIR SEA DIR/SP/G                  HT/PER
                 (UTC) (F)     (DEG/KT/KT) (MB)    (MI)  (FT/S)
KEATON BEACH     2100   52      50/ 13/ 19 1027.6F
CEDAR KEY        2056   62      50/ 11/ 13 1026.9R
C TOWER          2100   54      50/ 26/ 28 1026.5S
APALACHICOLA BUO 2100   60 65   60/ 17/ 19 1025.3F         5/ 6
PANAMA CITY BUOY 2006   61 67   90/ 19/ 23 1025.1          6/ 7
MOBILE BUOY      2041   62 70   80/ 14/ 17 1026.2F         5/ 7
ORANGE BCH AL BU 2100   56 62   80/ 17/ 19 1026.4F         4/ 6
$$



USA.gov is the U.S. government's official web portal to all federal, state and local government web resources and services.